Regional Weather Roundup
Issued by NWS

Home | Current Version | Previous Version | Text Only | Print | Product List | Glossary Off
Versions: 1 2 3 4 5 6 7 8 9 10 11 12 13 14 15 16 17 18 19 20 21 22 23 24 25 26 27 28 29 30 31 32 33 34 35 36 37 38 39 40 41 42 43 44 45 46 47 48 49 50

000
ASUS43 KBIS 300402
RWRND

NORTH DAKOTA REGIONAL WEATHER ROUNDUP
NATIONAL WEATHER SERVICE BISMARCK ND
1100 PM CDT SAT APR 29 2017

NOTE: "FAIR" INDICATES FEW OR NO CLOUDS BELOW 12,000 FEET WITH NO
SIGNIFICANT WEATHER AND/OR OBSTRUCTIONS TO VISIBILITY.


NDZ001>003-009>011-017-300500-
NORTHWEST NORTH DAKOTA

CITY           SKY/WX    TMP DP  RH WIND       PRES   REMARKS
WILLISTON      FAIR      44  31  60 CALM      30.12S
MINOT          FAIR      54  29  38 CALM      30.13R
MINOT AFB      CLEAR     40  31  69 CALM      30.12R
$$

NDZ018>021-031>035-040>046-300500-
SOUTHWEST NORTH DAKOTA

CITY           SKY/WX    TMP DP  RH WIND       PRES   REMARKS
BISMARCK       FAIR      43  26  51 SE5       30.20R
DICKINSON      FAIR      35  20  54 S9        30.15R
GARRISON         N/A     44  22  41 S10       30.15R
HETTINGER ARPT PTCLDY    44  17  33 SE8       30.19R
$$

NDZ004>008-012>016-024-026-027-054-300500-
NORTHEAST NORTH DAKOTA

CITY           SKY/WX    TMP DP  RH WIND       PRES   REMARKS
GRAND FORKS    CLOUDY    50  35  56 SE7       30.22S
GRND FRKS AFB  MOCLDY    48  29  49 SE8       30.22R
DEVILS LAKE    FAIR      46  30  53 SE9       30.19R
$$

NDZ022-023-025-028>030-036>039-047>053-300500-
SOUTHEAST NORTH DAKOTA

CITY           SKY/WX    TMP DP  RH WIND       PRES   REMARKS
FARGO          CLOUDY    48  26  42 E5        30.23R
JAMESTOWN      FAIR      46  29  51 SE6       30.21R
$$




USA.gov is the U.S. government's official web portal to all federal, state and local government web resources and services.